• MPC Preparation (Info)

  • MPEC 2000-K05 : 2000 JQ66

    The following Minor Planet Electronic Circular may be linked-to from your own Web pages, but must not otherwise be redistributed electronically.

    A form allowing access to any MPEC is at the bottom of this page.


    Read MPEC 2000-K04 Read MPEC 2000-K06


    M.P.E.C. 2000-K05                                Issued 2000 May 17, 21:04 UT
    
         The Minor Planet Electronic Circulars contain information on unusual
             minor planets and routine data on comets.  They are published
       on behalf of Commission 20 of the International Astronomical Union by the
              Minor Planet Center, Smithsonian Astrophysical Observatory,
                              Cambridge, MA 02138, U.S.A.
    
                 Prepared using the Tamkin Foundation Computer Network
    
                 BMARSDEN@CFA.HARVARD.EDU or GWILLIAMS@CFA.HARVARD.EDU
              URL http://cfa-www.harvard.edu/iau/mpc.html  ISSN 1523-6714
    
                                       2000 JQ66
    
    Observations:
         K00J66Q  C2000 05 02.32719 16 17 25.83 -08 04 35.6          18.2 R      699
         K00J66Q  C2000 05 02.34626 16 17 26.06 -08 04 15.7                      699
         K00J66Q  C2000 05 02.36544 16 17 26.34 -08 03 55.9                      699
         K00J66Q  C2000 05 02.38458 16 17 26.56 -08 03 35.5                      699
         K00J66Q  C2000 05 05.33733 16 18 16.27 -07 11 08.7          18.3        704
         K00J66Q  C2000 05 05.34932 16 18 16.38 -07 10 56.1          18.5        704
         K00J66Q  C2000 05 05.36134 16 18 16.49 -07 10 42.1          18.9        704
         K00J66Q  C2000 05 05.37334 16 18 16.51 -07 10 29.0          18.4        704
         K00J66Q  C2000 05 05.38536 16 18 16.63 -07 10 16.4          18.2        704
         K00J66Q* C2000 05 11.26614 16 19 14.65 -05 19 47.4          18.0        704
         K00J66Q  C2000 05 11.28002 16 19 14.62 -05 19 31.5          17.6        704
         K00J66Q  C2000 05 11.29223 16 19 14.62 -05 19 17.5          17.7        704
         K00J66Q  C2000 05 11.30421 16 19 14.59 -05 19 03.2          17.9        704
         K00J66Q  C2000 05 11.31611 16 19 14.56 -05 18 49.5          18.0        704
         K00J66Q  C2000 05 12.39095 16 19 19.43 -04 57 57.4          17.6        704
         K00J66Q  C2000 05 12.41413 16 19 19.00 -04 57 27.3          17.7        704
         K00J66Q  C2000 05 12.42572 16 19 18.85 -04 57 13.6          17.7        704
         K00J66Q  C2000 05 14.31030 16 19 24.96 -04 20 21.5          17.8        704
         K00J66Q  C2000 05 14.32223 16 19 24.89 -04 20 07.3          18.3        704
         K00J66Q  C2000 05 14.33436 16 19 24.84 -04 19 52.9          17.8        704
         K00J66Q  C2000 05 14.34625 16 19 24.77 -04 19 39.0          17.4        704
         K00J66Q  C2000 05 14.35813 16 19 24.73 -04 19 24.8          17.9        704
    
    Observer details:
    699 Lowell Observatory-LONEOS.  Observer W. D. Ferris.  Measurer B. W. Koehn.
        0.59-m LONEOS Schmidt + CCD.
    704 Lincoln Laboratory ETS, New Mexico.  Observers M. Blythe, F. Shelly,
        M. Bezpalko, M. Elowitz, R. Huber.  Measurers J. Stuart, H. Viggh,
        R. Sayer, J. B. Evans.  1.0-m f/2.15 reflector + CCD.
    
    Orbital elements:
    2000 JQ66
    Epoch 2000 Apr. 26.0 TT = JDT 2451660.5                 Spahr
    M 331.75635              (2000.0)            P               Q
    n   0.30867514     Peri.  102.70711     +0.37919309     +0.92508834
    a   2.1683778      Node   189.65330     -0.88947373     +0.35827925
    e   0.4196530      Incl.    7.05484     -0.25504721     +0.12588701
    P   3.19           H   17.8           G   0.15
    From 22 observations 2000 May 2-14.
    
    Ephemeris:
    2000 JQ66                a,e,i = 2.17, 0.42, 7                   q = 1.2584
    Date    TT    R. A. (2000) Decl.     Delta      r     Elong.  Phase     V
    2000 05 16    16 19.43   -03 46.8    0.441    1.435   160.8    13.4    17.6
    2000 05 26    16 18.63   -00 29.6    0.399    1.393   159.3    14.9    17.4
    2000 06 05    16 17.31   +02 27.9    0.370    1.355   153.5    19.5    17.3
    2000 06 15    16 17.41   +04 39.8    0.352    1.323   146.3    25.2    17.3
    2000 06 25    16 20.71   +05 49.3    0.343    1.296   139.4    30.7    17.4
    2000 07 05    16 28.48   +05 49.6    0.341    1.276   133.6    35.2    17.4
    2000 07 15    16 41.52   +04 44.2    0.345    1.264   129.3    38.5    17.5
    2000 07 25    16 59.77   +02 44.4    0.354    1.258   126.3    40.6    17.6
    2000 08 04    17 22.75   +00 05.1    0.370    1.261   124.4    41.6    17.8
    2000 08 14    17 49.70   -02 54.2    0.394    1.272   123.2    41.8    17.9
    2000 08 24    18 19.44   -05 52.2    0.426    1.290   122.2    41.6    18.1
    2000 09 03    18 50.78   -08 31.0    0.470    1.314   121.0    41.1    18.4
    2000 09 13    19 22.64   -10 36.8    0.525    1.345   119.6    40.6    18.6
    2000 09 23    19 54.01   -12 03.4    0.593    1.381   117.6    40.1    18.9
    2000 10 03    20 24.30   -12 50.6    0.672    1.422   115.0    39.6    19.3
    2000 10 13    20 53.19   -13 01.5    0.764    1.467   112.0    39.1    19.6
    2000 10 23    21 20.51   -12 41.9    0.867    1.514   108.6    38.5    19.9
    2000 11 02    21 46.35   -11 57.2    0.980    1.564   104.9    37.8    20.2
    2000 11 12    22 10.84   -10 52.6    1.104    1.616   100.9    37.0    20.6
    2000 11 22    22 34.11   -09 33.0    1.236    1.668    96.6    36.0    20.8
    2000 12 02    22 56.37   -08 02.0    1.375    1.722    92.2    34.9    21.1
    2000 12 12    23 17.78   -06 22.8    1.521    1.776    87.5    33.6    21.4
    2000 12 22    23 38.46   -04 38.0    1.671    1.830    82.8    32.2    21.6
    2001 01 01    23 58.58   -02 49.9    1.825    1.884    77.9    30.7    21.8
    2001 01 11    00 18.22   -01 00.1    1.981    1.937    73.0    29.0    22.0
    
    Gareth V. Williams           (C) Copyright 2000 MPC           M.P.E.C. 2000-K05
    

    Read MPEC 2000-K04 Read MPEC 2000-K06


    MPEC number:

    Enter an MPEC number in one of the following forms:

    • 1997-B01 (the full form)
    • J97B01 (the packed version of the full form)
    • B01 (the abbreviated form)